Selawik, AK

8:24 PM AKDT on April 25, 2018 (GMT -0800)
Selawik

Weather History for PASK - March, 2013

Change the Weather History Date:

Monday, March 11, 2013

  Actual Average Record
Temperature  
Mean Temperature -6 °F -  
Max Temperature -2 °F 5 °F 24 °F (2004)
Min Temperature -13 °F -4 °F -38 °F (1999)
Degree Days  
Heating Degree Days 72    
Moisture  
Dew Point -11 °F    
Average Humidity 82    
Maximum Humidity 92    
Minimum Humidity 70    
Precipitation  
Precipitation 0.00 in - - ()
Sea Level Pressure  
Sea Level Pressure 30.75 in    
Wind  
Wind Speed 14 mph (WSW)    
Max Wind Speed 20 mph    
Max Gust Speed 24 mph    
Visibility 7 miles    
Events      
Averages and records for this station are not official NWS values.
T = Trace of Precipitation, MM = Missing Value Source: NWS Daily Summary

Daily Weather History Graph

Daily Weather History Graph

Search for Another Location

Airport or City:

Astronomy

Mar. 11, 2013 Rise Set
Actual Time 9:13 AM AKDT 8:27 PM AKDT
Civil Twilight 8:21 AM AKDT 9:20 PM AKDT
Nautical Twilight 7:19 AM AKDT 10:22 PM AKDT
Astronomical Twilight 6:11 AM AKDT 11:31 PM AKDT
Moon 8:38 AM AKDT (3/11) 9:21 PM AKDT (3/11)
Length of Visible Light 12h 58m
Length of Day
11h 14m
New Moon, 0% of the Moon is Illuminated
Mar 11
New Moon
Mar 19
First Quarter
Mar 27
Full
Apr 2
Last Quarter
Apr 10
New

Hourly Weather History & Observations

Time (AKDT) Temp. Windchill Dew Point Humidity Pressure Visibility Wind Dir Wind Speed Gust Speed Precip Events Conditions
12:16 AM -2.2 °F -24.7 °F -5.8 °F 85% 30.57 in 7.0 mi West 19.6 mph 24.2 mph N/A   Clear
12:36 AM -2.2 °F -24.1 °F -7.6 °F 78% 30.58 in 8.0 mi West 18.4 mph 24.2 mph N/A   Clear
12:56 AM -2.2 °F -23.5 °F -5.8 °F 85% 30.60 in 8.0 mi West 17.3 mph 23.0 mph N/A   Clear
1:16 AM -2.2 °F -23.5 °F -7.6 °F 78% 30.61 in 7.0 mi West 17.3 mph 21.9 mph N/A   Clear
1:36 AM -2.2 °F -22.9 °F -7.6 °F 78% 30.62 in 7.0 mi West 16.1 mph 24.2 mph N/A   Clear
1:56 AM -4.0 °F -25.8 °F -7.6 °F 85% 30.63 in 7.0 mi West 17.3 mph 23.0 mph N/A   Clear
2:16 AM -5.8 °F -28.2 °F -7.6 °F 92% 30.64 in 5.0 mi West 17.3 mph - N/A   Clear
2:36 AM -5.8 °F -27.5 °F -9.4 °F 84% 30.64 in 7.0 mi WSW 16.1 mph 20.7 mph N/A   Clear
2:56 AM -5.8 °F -28.2 °F -9.4 °F 84% 30.65 in 5.0 mi WSW 17.3 mph - N/A   Clear
3:16 AM -5.8 °F -28.2 °F -9.4 °F 84% 30.65 in 5.0 mi WSW 17.3 mph - N/A   Clear
3:36 AM -7.6 °F -28.3 °F -11.2 °F 84% 30.67 in 5.0 mi WSW 13.8 mph - N/A   Clear
3:56 AM -7.6 °F -29.1 °F -13.0 °F 77% 30.68 in 5.0 mi WSW 15.0 mph - N/A   Clear
4:36 AM -7.6 °F -30.5 °F -9.4 °F 92% 30.68 in 4.0 mi West 17.3 mph - N/A   Partly Cloudy
4:56 AM -7.6 °F -29.1 °F -14.8 °F 71% 30.69 in 3.0 mi West 15.0 mph - N/A   Mostly Cloudy
5:16 AM -7.6 °F -29.1 °F -11.2 °F 84% 30.69 in 3.0 mi West 15.0 mph - N/A   Scattered Clouds
5:36 AM -9.4 °F -31.4 °F -13.0 °F 84% 30.70 in 4.0 mi West 15.0 mph - N/A   Clear
5:56 AM -9.4 °F -30.6 °F -11.2 °F 92% 30.69 in 4.0 mi WSW 13.8 mph 19.6 mph N/A   Clear
6:16 AM -9.4 °F -32.1 °F -14.8 °F 77% 30.70 in 4.0 mi West 16.1 mph - N/A   Clear
6:36 AM -9.4 °F -31.4 °F -11.2 °F 92% 30.71 in 4.0 mi West 15.0 mph 19.6 mph N/A   Clear
6:56 AM -9.4 °F -32.1 °F -13.0 °F 84% 30.73 in 4.0 mi West 16.1 mph - N/A   Clear
7:16 AM -9.4 °F -31.4 °F -14.8 °F 77% 30.73 in 3.0 mi West 15.0 mph - N/A   Clear
7:36 AM -9.4 °F -32.1 °F -14.8 °F 77% 30.73 in 5.0 mi West 16.1 mph 21.9 mph N/A   Clear
7:56 AM -11.2 °F -33.7 °F -14.8 °F 84% 30.74 in 5.0 mi West 15.0 mph - N/A   Clear
8:16 AM -11.2 °F -34.4 °F -14.8 °F 84% 30.74 in 5.0 mi WSW 16.1 mph 19.6 mph N/A   Clear
8:36 AM -11.2 °F -32.1 °F -14.8 °F 84% 30.74 in 5.0 mi WSW 12.7 mph - N/A   Clear
8:56 AM -11.2 °F -32.9 °F -14.8 °F 84% 30.75 in 4.0 mi WSW 13.8 mph 19.6 mph N/A   Clear
9:16 AM -11.2 °F -33.7 °F -14.8 °F 84% 30.74 in 3.0 mi WSW 15.0 mph - N/A   Clear
9:36 AM -11.2 °F -32.1 °F -14.8 °F 84% 30.75 in 2.5 mi WSW 12.7 mph - N/A   Clear
9:56 AM -9.4 °F -30.6 °F -14.8 °F 77% 30.75 in 3.0 mi WSW 13.8 mph - N/A   Clear
10:16 AM -9.4 °F -30.6 °F -13.0 °F 84% 30.76 in 3.0 mi WSW 13.8 mph - N/A   Clear
10:36 AM -9.4 °F -27.9 °F -13.0 °F 84% 30.76 in 3.0 mi WSW 10.4 mph - N/A   Clear
10:56 AM -9.4 °F -30.6 °F -14.8 °F 77% 30.77 in 4.0 mi WSW 13.8 mph - N/A   Clear
11:16 AM -9.4 °F -32.1 °F -14.8 °F 77% 30.78 in 2.5 mi West 16.1 mph - N/A   Mostly Cloudy
11:36 AM -9.4 °F -32.1 °F -14.8 °F 77% 30.78 in 3.0 mi West 16.1 mph - N/A   Scattered Clouds
11:56 AM -9.4 °F -31.4 °F -13.0 °F 84% 30.78 in 5.0 mi West 15.0 mph - N/A   Clear
12:16 PM -9.4 °F -30.6 °F -11.2 °F 92% 30.78 in 6.0 mi West 13.8 mph 17.3 mph N/A   Clear
12:36 PM -7.6 °F -27.5 °F -11.2 °F 84% 30.78 in 9.0 mi WSW 12.7 mph - N/A   Clear
12:56 PM -7.6 °F -28.3 °F -11.2 °F 84% 30.78 in 9.0 mi WSW 13.8 mph - N/A   Clear
1:16 PM -7.6 °F -26.6 °F -11.2 °F 84% 30.78 in 9.0 mi West 11.5 mph - N/A   Clear
1:36 PM -7.6 °F -26.6 °F -9.4 °F 92% 30.78 in 8.0 mi WSW 11.5 mph 17.3 mph N/A   Clear
1:56 PM -7.6 °F -26.6 °F -13.0 °F 77% 30.79 in 9.0 mi West 11.5 mph - N/A   Clear
2:16 PM -5.8 °F -23.4 °F -9.4 °F 84% 30.80 in 10.0 mi WSW 10.4 mph - N/A   Clear
2:36 PM -5.8 °F -23.4 °F -11.2 °F 77% 30.80 in 10.0 mi West 10.4 mph 16.1 mph N/A   Clear
2:56 PM -5.8 °F -23.4 °F -9.4 °F 84% 30.80 in 10.0 mi West 10.4 mph - N/A   Clear
3:16 PM -5.8 °F -25.2 °F -9.4 °F 84% 30.80 in 9.0 mi West 12.7 mph - N/A   Clear
3:36 PM -4.0 °F -23.0 °F -9.4 °F 78% 30.80 in 9.0 mi West 12.7 mph - N/A   Clear
3:56 PM -4.0 °F -23.0 °F -9.4 °F 78% 30.81 in 10.0 mi West 12.7 mph - N/A   Clear
4:16 PM -4.0 °F -22.1 °F -7.6 °F 85% 30.80 in 10.0 mi West 11.5 mph - N/A   Clear
4:36 PM -4.0 °F -21.2 °F -9.4 °F 78% 30.81 in 10.0 mi West 10.4 mph - N/A   Clear
4:56 PM -4.0 °F -21.2 °F -7.6 °F 85% 30.81 in 10.0 mi West 10.4 mph - N/A   Clear
5:16 PM -4.0 °F -19.0 °F -9.4 °F 78% 30.80 in 10.0 mi WSW 8.1 mph - N/A   Clear
5:36 PM -4.0 °F -19.0 °F -7.6 °F 85% 30.80 in 10.0 mi West 8.1 mph - N/A   Clear
5:56 PM -4.0 °F -17.8 °F -9.4 °F 78% 30.81 in 10.0 mi West 6.9 mph - N/A   Clear
6:16 PM -4.0 °F -19.0 °F -7.6 °F 85% 30.81 in 10.0 mi West 8.1 mph - N/A   Clear
6:36 PM -4.0 °F -19.0 °F -9.4 °F 78% 30.81 in 10.0 mi West 8.1 mph - N/A   Clear
6:56 PM -4.0 °F -16.3 °F -9.4 °F 78% 30.81 in 10.0 mi WSW 5.8 mph - N/A   Clear
7:16 PM -4.0 °F -17.8 °F -9.4 °F 78% 30.80 in 10.0 mi WSW 6.9 mph - N/A   Clear
7:36 PM -5.8 °F -19.9 °F -9.4 °F 84% 30.80 in 10.0 mi WSW 6.9 mph - N/A   Clear
7:56 PM -5.8 °F -19.9 °F -9.4 °F 84% 30.80 in 10.0 mi West 6.9 mph - N/A   Clear
8:16 PM -7.6 °F -18.8 °F -11.2 °F 84% 30.80 in 8.0 mi WSW 4.6 mph - N/A   Clear
8:36 PM -7.6 °F -20.6 °F -11.2 °F 84% 30.80 in 10.0 mi WSW 5.8 mph - N/A   Clear
8:56 PM -7.6 °F -18.8 °F -13.0 °F 77% 30.80 in 10.0 mi WSW 4.6 mph - N/A   Clear
9:16 PM -9.4 °F -22.7 °F -11.2 °F 92% 30.79 in 8.0 mi WSW 5.8 mph - N/A   Clear
9:36 PM -9.4 °F -22.7 °F -13.0 °F 84% 30.79 in 9.0 mi WSW 5.8 mph - N/A   Clear
10:16 PM -9.4 °F -20.9 °F -13.0 °F 84% 30.79 in 10.0 mi WSW 4.6 mph - N/A   Clear
10:36 PM -11.2 °F -24.8 °F -14.8 °F 84% 30.79 in 8.0 mi West 5.8 mph - N/A   Clear
10:56 PM -11.2 °F -24.8 °F -14.8 °F 84% 30.79 in 10.0 mi West 5.8 mph - N/A   Clear
11:16 PM -11.2 °F -24.8 °F -16.6 °F 77% 30.79 in 8.0 mi West 5.8 mph - N/A   Clear
11:36 PM -11.2 °F -20.6 °F -13.0 °F 92% 30.79 in 9.0 mi West 3.5 mph - N/A   Clear
11:56 PM -13.0 °F -22.7 °F -20.2 °F 70% 30.79 in 4.0 mi West 3.5 mph - N/A   Clear